Weather History for KACT - April, 2013

Change the Weather History Date:

Saturday, April 13, 2013

  Actual Average Record
Temperature  
Mean Temperature 64 °F 65 °F  
Max Temperature 79 °F 77 °F 96 °F (1902)
Min Temperature 49 °F 54 °F 31 °F (1940)
Degree Days  
Heating Degree Days 1 3  
Month to date heating degree days 74 50  
Since 1 July heating degree days 1922 2108  
Cooling Degree Days 0 3  
Month to date cooling degree days 23 34  
Year to date cooling degree days 66 77  
Growing Degree Days 14 (Base 50)    
Moisture  
Dew Point 48 °F    
Average Humidity 59    
Maximum Humidity 86    
Minimum Humidity 32    
Precipitation  
Precipitation 0.13 in 0.08 in 2.50 in (1902)
Month to date precipitation 0.99 0.99  
Year to date precipitation 9.97 8.89  
Snow  
Snow 0.00 in 0.00 in 0.00 in ()
Month to date snowfall 0.0 0.1  
Since 1 July snowfall T 1.1  
Snow Depth 0.00 in    
Sea Level Pressure  
Sea Level Pressure 29.88 in    
Wind  
Wind Speed 9 mph (SE)    
Max Wind Speed 20 mph    
Max Gust Speed 24 mph    
Visibility 10 miles    
Events Thunderstorm    
T = Trace of Precipitation, MM = Missing Value Source: NWS Daily Summary

Daily Weather History Graph

Daily Weather History Graph

Search for Another Location

Airport or City:

Trip Planner

Search our weather history database for the weather conditions in past years. The results will help you decide how hot, cold, wet, or windy it might be!

Date:

Astronomy

Apr. 13, 2013 Rise Set
Actual Time 7:02 AM CDT 7:56 PM CDT
Civil Twilight 6:37 AM CDT 8:21 PM CDT
Nautical Twilight 6:08 AM CDT 8:51 PM CDT
Astronomical Twilight 5:37 AM CDT 9:21 PM CDT
Moon 9:04 AM CDT (4/13) 11:10 PM CDT (4/13)
Length of Visible Light 13h 44m
Length of Day
12h 54m
Waxing Crescent, 10% of the Moon is Illuminated
Apr 13
Waxing Crescent
Apr 18
First Quarter
Apr 25
Full
May 2
Last Quarter
May 9
New

Hourly Weather History & Observations

Time (CDT) Temp. Dew Point Humidity Pressure Visibility Wind Dir Wind Speed Gust Speed Precip Events Conditions
12:51 AM 62.1 °F 42.1 °F 48% 29.94 in 10.0 mi SE 9.2 mph - N/A   Clear
1:51 AM 61.0 °F 45.0 °F 56% 29.94 in 10.0 mi South 11.5 mph - N/A   Clear
2:51 AM 60.1 °F 48.0 °F 64% 29.93 in 10.0 mi South 10.4 mph - N/A   Clear
3:51 AM 55.0 °F 48.0 °F 77% 29.93 in 10.0 mi South 5.8 mph - N/A   Clear
4:51 AM 53.1 °F 46.9 °F 80% 29.93 in 10.0 mi East 4.6 mph - N/A   Clear
5:51 AM 50.0 °F 46.0 °F 86% 29.93 in 10.0 mi SE 4.6 mph - N/A   Clear
6:51 AM 51.1 °F 46.9 °F 86% 29.95 in 10.0 mi SE 5.8 mph - N/A   Clear
7:51 AM 53.1 °F 48.0 °F 83% 29.97 in 8.0 mi Calm Calm - N/A   Clear
8:51 AM 55.9 °F 50.0 °F 80% 29.97 in 9.0 mi East 3.5 mph - N/A   Clear
9:51 AM 62.1 °F 51.1 °F 67% 29.97 in 10.0 mi SSE 4.6 mph - N/A   Clear
10:51 AM 68.0 °F 51.1 °F 55% 29.96 in 10.0 mi SSE 8.1 mph - N/A   Clear
11:51 AM 72.0 °F 50.0 °F 46% 29.94 in 10.0 mi SSE 17.3 mph 20.7 mph N/A   Clear
12:51 PM 72.0 °F 50.0 °F 46% 29.92 in 10.0 mi SSE 13.8 mph - N/A   Clear
1:51 PM 73.9 °F 48.9 °F 41% 29.89 in 10.0 mi South 10.4 mph - N/A   Clear
2:51 PM 73.9 °F 48.9 °F 41% 29.86 in 10.0 mi SSE 10.4 mph - N/A   Clear
3:51 PM 73.9 °F 46.0 °F 37% 29.82 in 10.0 mi SE 12.7 mph - N/A   Clear
4:51 PM 78.1 °F 46.0 °F 32% 29.81 in 10.0 mi South 15.0 mph 19.6 mph N/A   Clear
5:51 PM 73.9 °F 46.0 °F 37% 29.79 in 10.0 mi SSE 10.4 mph - N/A   Clear
6:51 PM 72.0 °F 46.9 °F 41% 29.79 in 10.0 mi SSE 17.3 mph - N/A   Clear
7:51 PM 69.1 °F 48.9 °F 49% 29.79 in 10.0 mi SE 8.1 mph - N/A   Clear
8:25 PM 69.8 °F 48.2 °F 46% 29.82 in 10.0 mi SSE 8.1 mph - N/A Thunderstorm Thunderstorm
8:40 PM 69.8 °F 50.0 °F 49% 29.81 in 10.0 mi SE 8.1 mph - N/A   Partly Cloudy
8:51 PM 68.0 °F 50.0 °F 52% 29.80 in 10.0 mi ESE 6.9 mph - N/A   Partly Cloudy
8:59 PM 68.0 °F 51.8 °F 56% 29.81 in 10.0 mi ESE 8.1 mph - N/A Thunderstorm Thunderstorm
9:51 PM 63.0 °F 55.9 °F 78% 29.81 in 10.0 mi East 5.8 mph - 0.13 in   Partly Cloudy
10:51 PM 64.9 °F 53.1 °F 65% 29.82 in 10.0 mi SSE 13.8 mph - N/A   Partly Cloudy
11:51 PM 63.0 °F 51.1 °F 65% 29.81 in 10.0 mi South 10.4 mph - N/A   Clear